• In Netherlands
  • List of Countries
  • For 7 days
  • Water Temperature
  • Satellite Maps
  • Weather Map
  • Weather Widgets
  • user-avatar
    Login

    Hourly Weather Antwerp

    Today, 25 April, Tuesday

    Time Temperature Precipitation Wind Pressure Humidity
    00:00 +7°C° 0 mm 4 mps 755 mmHg 89%
    01:00 +6°C° 0.1 mm 4 mps 755 mmHg 86%
    02:00 +6°C° 0.1 mm 4 mps 755 mmHg 84%
    03:00 +5°C° 0.1 mm 5 mps 755 mmHg 82%
    04:00 +5°C° 0 mm 5 mps 755 mmHg 80%
    05:00 +3°C° 0 mm 5 mps 755 mmHg 78%
    06:00 +3°C° 0 mm 5 mps 756 mmHg 76%
    07:00 +4°C° 0.1 mm 6 mps 756 mmHg 71%
    08:00 +5°C° 0.1 mm 6 mps 756 mmHg 66%
    09:00 +6°C° 0.1 mm 7 mps 757 mmHg 61%
    10:00 +6°C° 0.1 mm 7 mps 757 mmHg 58%
    11:00 +8°C° 0.1 mm 6 mps 757 mmHg 55%
    12:00 +9°C° 0.1 mm 6 mps 757 mmHg 52%
    13:00 +9°C° 0.1 mm 6 mps 757 mmHg 52%
    14:00 +8°C° 0.1 mm 6 mps 757 mmHg 52%
    15:00 +8°C° 0.1 mm 6 mps 757 mmHg 51%
    16:00 +8°C° 0 mm 5 mps 757 mmHg 55%
    17:00 +7°C° 0 mm 4 mps 757 mmHg 59%
    18:00 +6°C° 0 mm 4 mps 757 mmHg 63%
    19:00 +5°C° 0 mm 3 mps 757 mmHg 66%
    20:00 +4°C° 0 mm 3 mps 757 mmHg 68%
    21:00 +3°C° 0 mm 3 mps 757 mmHg 71%
    22:00 +3°C° 0 mm 3 mps 757 mmHg 72%
    23:00 +2°C° 0 mm 3 mps 758 mmHg 74%

    Tomorrow, 26 April, Wednesday

    Time Temperature Precipitation Wind Pressure Humidity
    00:00 +2°C° 0 mm 3 mps 758 mmHg 76%
    01:00 +3°C° 0 mm 2 mps 758 mmHg 78%
    02:00 +2°C° 0 mm 2 mps 758 mmHg 80%
    03:00 +2°C° 0 mm 2 mps 758 mmHg 81%
    04:00 +3°C° 0 mm 2 mps 758 mmHg 79%
    05:00 +4°C° 0 mm 2 mps 758 mmHg 76%
    06:00 +5°C° 0 mm 2 mps 758 mmHg 73%
    07:00 +6°C° 0 mm 2 mps 758 mmHg 66%
    08:00 +8°C° 0 mm 2 mps 758 mmHg 59%
    09:00 +9°C° 0 mm 3 mps 759 mmHg 52%
    10:00 +10°C° 0.2 mm 3 mps 759 mmHg 50%
    11:00 +10°C° 0.2 mm 3 mps 759 mmHg 49%
    12:00 +11°C° 0.2 mm 4 mps 759 mmHg 47%
    13:00 +11°C° 0.3 mm 4 mps 759 mmHg 49%
    14:00 +10°C° 0.3 mm 5 mps 759 mmHg 51%
    15:00 +9°C° 0.3 mm 5 mps 759 mmHg 52%
    16:00 +9°C° 0.1 mm 5 mps 759 mmHg 58%
    17:00 +8°C° 0.1 mm 4 mps 759 mmHg 63%
    18:00 +7°C° 0.1 mm 4 mps 760 mmHg 69%
    19:00 +6°C° 0 mm 4 mps 760 mmHg 73%
    20:00 +4°C° 0 mm 4 mps 761 mmHg 77%
    21:00 +3°C° 0 mm 3 mps 761 mmHg 81%
    22:00 +3°C° 0 mm 3 mps 761 mmHg 83%
    23:00 +2°C° 0 mm 3 mps 761 mmHg 84%

    Day after tomorrow, 27 April, Thursday

    Time Temperature Precipitation Wind Pressure Humidity
    00:00 +2°C° 0 mm 3 mps 762 mmHg 86%
    01:00 +1°C° 0 mm 3 mps 762 mmHg 86%
    02:00 +1°C° 0 mm 3 mps 762 mmHg 87%
    03:00 +2°C° 0 mm 2 mps 762 mmHg 88%
    04:00 +3°C° 0 mm 2 mps 762 mmHg 85%
    05:00 +3°C° 0 mm 2 mps 762 mmHg 82%
    06:00 +4°C° 0 mm 2 mps 762 mmHg 79%
    07:00 +6°C° 0 mm 2 mps 762 mmHg 72%
    08:00 +7°C° 0 mm 2 mps 762 mmHg 64%
    09:00 +8°C° 0 mm 2 mps 762 mmHg 57%
    10:00 +9°C° 0.1 mm 3 mps 762 mmHg 55%
    11:00 +10°C° 0.1 mm 3 mps 762 mmHg 53%
    12:00 +10°C° 0.1 mm 4 mps 762 mmHg 51%
    13:00 +10°C° 0.1 mm 4 mps 761 mmHg 52%
    14:00 +10°C° 0.1 mm 4 mps 761 mmHg 53%
    15:00 +9°C° 0.1 mm 5 mps 761 mmHg 53%
    16:00 +10°C° 0 mm 4 mps 761 mmHg 58%
    17:00 +8°C° 0 mm 4 mps 760 mmHg 63%
    18:00 +8°C° 0 mm 3 mps 760 mmHg 68%
    19:00 +7°C° 0 mm 3 mps 760 mmHg 73%
    20:00 +5°C° 0 mm 3 mps 760 mmHg 77%
    21:00 +4°C° 0 mm 3 mps 760 mmHg 82%
    22:00 +4°C° 0.1 mm 3 mps 760 mmHg 85%
    23:00 +4°C° 0.1 mm 3 mps 760 mmHg 89%

    28 April, Friday

    Time Temperature Precipitation Wind Pressure Humidity
    00:00 +3°C° 0.1 mm 3 mps 760 mmHg 92%
    01:00 +4°C° 0.2 mm 3 mps 759 mmHg 93%
    02:00 +4°C° 0.2 mm 3 mps 759 mmHg 94%
    03:00 +5°C° 0.2 mm 3 mps 759 mmHg 94%
    04:00 +5°C° 0.1 mm 3 mps 759 mmHg 93%
    05:00 +7°C° 0.1 mm 3 mps 759 mmHg 91%
    06:00 +7°C° 0.1 mm 3 mps 758 mmHg 90%
    07:00 +8°C° 0.2 mm 3 mps 759 mmHg 84%
    08:00 +8°C° 0.2 mm 4 mps 759 mmHg 79%
    09:00 +10°C° 0.2 mm 4 mps 759 mmHg 74%
    10:00 +10°C° 0.2 mm 4 mps 759 mmHg 71%
    11:00 +11°C° 0.2 mm 4 mps 759 mmHg 69%
    12:00 +10°C° 0.2 mm 5 mps 759 mmHg 66%
    13:00 +10°C° 0.1 mm 5 mps 759 mmHg 64%
    14:00 +10°C° 0.1 mm 5 mps 759 mmHg 63%
    15:00 +10°C° 0.1 mm 6 mps 759 mmHg 62%
    16:00 +9°C° 0 mm 5 mps 760 mmHg 64%
    17:00 +8°C° 0 mm 4 mps 760 mmHg 65%
    18:00 +7°C° 0 mm 4 mps 760 mmHg 67%
    19:00 +7°C° 0 mm 3 mps 760 mmHg 70%
    20:00 +5°C° 0 mm 3 mps 761 mmHg 72%
    21:00 +5°C° 0 mm 2 mps 761 mmHg 75%
    22:00 +5°C° 0 mm 2 mps 761 mmHg 73%
    23:00 +5°C° 0 mm 2 mps 761 mmHg 72%

    29 April, Saturday

    Time Temperature Precipitation Wind Pressure Humidity
    00:00 +5°C° 0 mm 2 mps 761 mmHg 71%
    01:00 +5°C° 0 mm 2 mps 761 mmHg 72%
    02:00 +5°C° 0 mm 2 mps 761 mmHg 72%
    03:00 +5°C° 0 mm 2 mps 761 mmHg 73%
    04:00 +5°C° 0 mm 2 mps 761 mmHg 73%
    05:00 +6°C° 0 mm 2 mps 761 mmHg 73%
    06:00 +6°C° 0 mm 2 mps 761 mmHg 73%
    07:00 +7°C° 0 mm 2 mps 761 mmHg 69%
    08:00 +8°C° 0 mm 2 mps 761 mmHg 65%
    09:00 +10°C° 0 mm 1 mps 761 mmHg 61%
    10:00 +11°C° 0.1 mm 1 mps 761 mmHg 59%
    11:00 +11°C° 0.1 mm 1 mps 761 mmHg 57%
    12:00 +12°C° 0.1 mm 1 mps 760 mmHg 55%
    13:00 +12°C° 0 mm 1 mps 760 mmHg 54%
    14:00 +13°C° 0 mm 1 mps 760 mmHg 52%
    15:00 +13°C° 0 mm 1 mps 760 mmHg 51%
    16:00 +12°C° 0 mm 1 mps 759 mmHg 56%
    17:00 +12°C° 0 mm 2 mps 759 mmHg 61%
    18:00 +10°C° 0 mm 2 mps 759 mmHg 66%
    19:00 +9°C° 0 mm 3 mps 759 mmHg 68%
    20:00 +7°C° 0 mm 3 mps 759 mmHg 71%
    21:00 +5°C° 0 mm 3 mps 759 mmHg 73%
    22:00 +5°C° 0 mm 3 mps 759 mmHg 74%
    23:00 +4°C° 0 mm 4 mps 758 mmHg 74%

    30 April, Sunday

    Time Temperature Precipitation Wind Pressure Humidity
    00:00 +4°C° 0 mm 4 mps 758 mmHg 75%
    01:00 +4°C° 0 mm 4 mps 757 mmHg 75%
    02:00 +4°C° 0 mm 4 mps 757 mmHg 76%
    03:00 +3°C° 0 mm 5 mps 756 mmHg 76%
    04:00 +5°C° 0 mm 5 mps 756 mmHg 75%
    05:00 +5°C° 0 mm 5 mps 755 mmHg 74%
    06:00 +5°C° 0 mm 6 mps 755 mmHg 72%
    07:00 +8°C° 0 mm 6 mps 754 mmHg 69%
    08:00 +10°C° 0 mm 6 mps 754 mmHg 66%
    09:00 +13°C° 0 mm 6 mps 753 mmHg 63%
    10:00 +14°C° 0.1 mm 6 mps 753 mmHg 66%
    11:00 +14°C° 0.1 mm 6 mps 753 mmHg 69%
    12:00 +14°C° 0.1 mm 6 mps 752 mmHg 72%
    13:00 +14°C° 0.1 mm 6 mps 752 mmHg 72%
    14:00 +14°C° 0.1 mm 7 mps 751 mmHg 73%
    15:00 +15°C° 0.1 mm 7 mps 751 mmHg 73%
    16:00 +14°C° 0.3 mm 6 mps 751 mmHg 77%
    17:00 +13°C° 0.3 mm 6 mps 751 mmHg 82%
    18:00 +12°C° 0.3 mm 5 mps 751 mmHg 87%
    19:00 +10°C° 1 mm 5 mps 752 mmHg 88%
    20:00 +10°C° 1 mm 4 mps 752 mmHg 90%
    21:00 +8°C° 1 mm 4 mps 753 mmHg 92%
    22:00 +8°C° 0.6 mm 4 mps 753 mmHg 91%
    23:00 +7°C° 0.6 mm 4 mps 754 mmHg 91%
    Show more